This demonstration page uses our WeatherBlox Daily Observations layout. Learn more.

36.17497, -115.13722

Hourly Observations for July 18, 2018

Temp ( °F °C ) Dew Point ( °F °C ) Humidity (%) Winds ( mph kmh ) Pressure ( in mb ) Visibility ( mi km ) Precip ( " mm )
12:53 am 00:53 Clear 90 32.2 60 15.6 37 37 Calm 29.94 1014 10 16.09344 0 0
1:53 am 01:53 Clear 90 32.2 60 15.6 37 37 W 9 15 29.91 1013 10 16.09344 0 0
2:53 am 02:53 Clear 92 33.3 60 15.6 34 34 NW 10 17 29.85 1011 10 16.09344 0 0
3:53 am 03:53 Clear 90 32.2 58 14.4 34 34 SSE 9 15 29.88 1012 10 16.09344 0 0
4:53 am 04:53 Mostly Clear 90 32.2 61 16.1 38 38 SE 10 17 29.88 1012 10 16.09344 0 0
5:53 am 05:53 Sunny 89 31.7 62 16.7 41 41 ESE 9 15 29.91 1013 10 16.09344 0 0
6:53 am 06:53 Sunny 88 31.1 64 17.8 45 45 ESE 13 20 29.94 1014 10 16.09344 0 0
7:53 am 07:53 Sunny 90 32.2 64 17.8 42 42 E 7 11 29.94 1014 10 16.09344 0 0
8:53 am 08:53 Sunny 91 32.8 64 17.8 41 41 SE 6 9 29.97 1015 10 16.09344 0 0
9:53 am 09:53 Sunny 93 33.9 64 17.8 38 38 Calm 29.97 1015 10 16.09344 0 0
10:53 am 10:53 Sunny 97 36.1 63 17.2 33 33 SE 6 9 29.97 1015 10 16.09344 0 0
11:53 am 11:53 Sunny 99 37.2 63 17.2 31 31 NE 8 13 29.94 1014 10 16.09344 0 0
12:53 pm 12:53 Sunny 102 38.9 63 17.2 28 28 ESE 14 22 29.91 1013 10 16.09344 0 0
1:53 pm 13:53 Sunny 104 40 61 16.1 24 24 ESE 13 20 29.88 1012 10 16.09344 0 0
2:53 pm 14:53 Sunny 104 40 60 15.6 24 24 SE 12 19 29.85 1011 10 16.09344 0 0
3:53 pm 15:53 Sunny 104 40 60 15.6 24 24 ESE 12 19 29.83 1010 10 16.09344 0 0
4:53 pm 16:53 Sunny 106 41.1 58 14.4 21 21 S 12 19 29.83 1010 10 16.09344 0 0
5:53 pm 17:53 Sunny 105 40.6 58 14.4 21 21 SE 12 19 29.8 1009 10 16.09344 0 0
6:53 pm 18:53 Sunny 104 40 57 13.9 21 21 SW 9 15 29.8 1009 10 16.09344 0 0
7:53 pm 19:53 Sunny 103 39.4 57 13.9 22 22 SSW 5 7 29.83 1010 10 16.09344 0 0
8:53 pm 20:53 Clear 101 38.3 58 14.4 24 24 S 10 17 29.83 1010 10 16.09344 0 0
9:53 pm 21:53 Clear 98 36.7 60 15.6 28 28 S 13 20 29.85 1011 10 16.09344 0 0
11:53 pm 23:53 Clear 96 35.6 59 15 29 29 S 9 15 29.85 1011 10 16.09344 0 0

Powered by AerisWeather